Kapaa, HI

8:39 PM HST on August 29, 2016 (GMT -1000)
Queen's Acres | | Change Station
Active Advisory: High Surf Advisory

Elev 348 ft 22.07 °N, 159.36 °W | Updated 34 seconds ago

Clear
Clear
74.3 °F
Feels Like 75 °F
N
0.0
Wind Variable Wind from North
Gusts 0.0 mph

Today
High -- | Low -- °F
--% Chance of Precip.
Yesterday
High -- | Low -- °F
Precip. -- in
Pressure 30.04 in
Visibility 10.0 miles
Clouds Clear
Heat Index 75 °F
Dew Point 68 °F
Humidity 81%
Rainfall 0.00 in
Snow Depth Not available.
6:19 AM 6:56 PM
Waning Crescent, 5% visible
METAR PHLI 300553Z 04011KT 10SM CLR 26/19 A3004 RMK AO2 SLP170 T02610189 10300 20261 53015
Pressure 30.04 in
Visibility 10.0 miles
Clouds Clear
Heat Index 75 °F
Dew Point 68 °F
Humidity 81%
Rainfall 0.00 in
Snow Depth Not available.
6:19 AM 6:56 PM
Waning Crescent, 5% visible
METAR PHLI 300553Z 04011KT 10SM CLR 26/19 A3004 RMK AO2 SLP170 T02610189 10300 20261 53015
Hurricane Madeline rapidly intensified from Sunday into Monday morning, and it may take a close swipe at parts of the Hawaiian Islands in the days ahead. Madeline's estimated peak surface winds increased from a 50 mph tropical storm Sunday morning, to a 125 mph Category 3 hurricane by Monday evening. A hurricane watch has been issued for Hawaii's Big Island. This means hurricane-force winds are possible within the warning area in the next 48 hours or less.

10-Day Weather Forecast

Almanac

Astronomy

Aug. 29, 2016 Rise Set
Actual Time
Civil Twilight
Nautical Twilight
Astronomical Twilight
Moon
Length of Visible Light
Length of Day
Tomorrow will be .
, % of the Moon is Illuminated

Today's Extremes

State Highs State Lows

Community

WunderPhotos

Upload Photos

1,935,795 photos uploaded!

WunderBlog® & News

Nearby

Air Quality

  Air Quality AQ Index Pollutant
Not available.

Snow Depth

Station Depth Elevation

Earthquake Activity

City Distance Mag. Time & Date
Minimum magnitude displayed is 2.5.

Coastal Water Temperatures

Place Temperature

Stations

Nearby Weather Stations

Station Location Temp. Windchill Dew Point Humidity Wind Precip. Elev Updated Type
                   

Watches & Warnings

High Surf Advisory
Issued: 4:45 PM HST Aug. 29, 2016 – National Weather Service

... High surf advisory in effect from 6 PM Tuesday to 6 am HST
Thursday...

The National Weather Service in Honolulu has issued a high surf
advisory... which is in effect from 6 PM Tuesday to 6 am HST
Thursday.

* Surf... building to 5 to 9 feet Tuesday night.

* Timing... building late Tuesday and peaking Wednesday.

* Impacts... moderate... expect strong breaking waves... shore
break... and strong longshore and rip currents making swimming
difficult and dangerous.

Precautionary/preparedness actions...

Beachgoers... swimmers... and surfers should heed all advice given
by ocean safety officials and exercise caution.


Wroe